[[{"header":{"parameterUnit":"m.s-1","parameterCategory":1,"la1":30.2991,"la2":30.254,"lo1":-89.0895,"lo2":-89.0444,"dy":0.0017,"dx":0.0017,"nx":28,"ny":28,"refTime":"2023-08-02T03:00:00:Z","depth":0,"parameterNumber":2,"parameterNumberName":"U-component_of_WINDS"},"data":[0,0,0,0,0,0,0,0,0,0,0,0,0,0,0,0,0,0,0,0,0,0,0,0,0,0,0,0,0,0,0,0,0,0,0,0,0,0,0,0,0,0,0,0,0,0,0,0,0,0,0,0,0,0,0,0,0,0,-0.6022,-0.6021,0,-0.5915,-0.5914,-0.5913,-0.5841,-0.5841,-0.584,-0.584,-0.573,-0.5727,-0.5725,0,0,0,0,0,0,0,0,0,0,0,0,0,-0.6165,-0.6163,-0.6022,-0.6021,-0.6019,-0.5915,-0.5914,-0.5912,-0.5842,-0.5841,-0.584,-0.584,-0.573,-0.5727,-0.5724,0,0,0,0,0,0,0,0,0,0,0,0,0,-0.6085,-0.6162,-0.6022,-0.5971,-0.5966,-0.5916,-0.5914,-0.5912,-0.5842,-0.5841,-0.584,-0.584,-0.5731,-0.5728,-0.5724,-0.5716,0,0,-0.5713,-0.5711,0,0,0,0,0,0,0,0,-0.609,-0.608,-0.598,-0.5975,-0.5968,-0.5891,-0.5924,-0.5846,-0.5842,-0.5889,-0.584,-0.5839,-0.5784,-0.5776,-0.5757,-0.571,-0.5706,-0.5712,-0.571,-0.5708,-0.5707,0,0,0,0,0,0,0,-0.6095,-0.6084,-0.598,-0.5979,-0.5972,-0.5954,-0.5942,-0.5909,-0.5842,-0.5885,-0.5879,-0.5868,-0.578,-0.5761,-0.5754,-0.5704,-0.5712,-0.5709,-0.5707,-0.5705,-0.5648,-0.5649,0,0,0,0,0,0,-0.6109,-0.6089,-0.5983,-0.5976,-0.6029,-0.5952,-0.5939,-0.5916,-0.5842,-0.583,-0.5868,-0.5865,-0.5768,-0.5759,-0.575,-0.5737,-0.5708,-0.5705,-0.5703,-0.5648,-0.5648,-0.5649,0,0,0,0,0,0,-0.6112,-0.61,-0.5987,-0.6031,-0.6016,-0.5951,-0.5926,-0.5915,-0.5895,-0.5829,-0.5817,-0.5861,-0.5767,-0.5755,-0.5725,-0.5732,-0.5703,-0.57,-0.5647,-0.5648,-0.5649,-0.5711,0,0,0,0,0,0,-0.6117,-0.6102,-0.6097,-0.6032,-0.6014,-0.5965,-0.5927,-0.5913,-0.5889,-0.5883,-0.5819,-0.5808,-0.5765,-0.5731,-0.5722,-0.5727,-0.5697,-0.5646,-0.5647,-0.5648,-0.5708,-0.5714,-0.5719,0,0,0,0,0,-0.6122,-0.6118,-0.6098,-0.6085,-0.6007,-0.5965,-0.5955,-0.5906,-0.589,-0.5886,-0.5844,-0.581,-0.5733,-0.5729,-0.5717,-0.5721,-0.5645,-0.5647,-0.5648,-0.5705,-0.5713,-0.5719,0,0,0,0,0,0,-0.6185,-0.6109,-0.6085,-0.606,-0.602,-0.5953,-0.5946,-0.5915,-0.5878,-0.5874,-0.5815,-0.5801,-0.5778,-0.5746,-0.5743,-0.5711,-0.5685,-0.5685,-0.5732,-0.5739,-0.5744,-0.5753,-0.5694,0,0,0,0,0,-0.6197,-0.6169,-0.6103,-0.6087,-0.6069,-0.6011,-0.5991,-0.5957,-0.5913,-0.5896,-0.5851,-0.581,-0.5777,-0.5756,-0.5721,-0.5703,-0.5689,-0.57,-0.5706,-0.5711,-0.5711,-0.5701,-0.5706,-0.5655,-0.5655,-0.5654,0,0,-0.6219,-0.6174,-0.6159,-0.6099,-0.6064,-0.6038,-0.5997,-0.597,-0.595,-0.5891,-0.5861,-0.5828,-0.5778,-0.5755,-0.5742,-0.5727,-0.5722,-0.5713,-0.5717,-0.5715,-0.5704,-0.5709,-0.5713,-0.5656,-0.5655,-0.5655,0,0,-0.6246,-0.6209,-0.6193,-0.6159,-0.6107,-0.6069,-0.6066,-0.6004,-0.598,-0.5949,-0.5906,-0.5881,-0.5825,-0.5792,-0.5767,-0.5786,-0.5754,-0.5776,-0.5806,-0.5797,-0.5801,-0.5805,-0.5813,-0.5817,-0.5777,-0.5777,-0.5777,0,-0.6281,-0.6239,-0.6188,-0.6164,-0.614,-0.6087,-0.6071,-0.6041,-0.598,-0.5965,-0.595,-0.588,-0.5842,-0.5811,-0.5817,-0.5798,-0.5793,-0.5783,-0.5805,-0.5808,-0.581,-0.5817,-0.5821,-0.578,-0.578,-0.5779,-0.5779,0,-0.6285,-0.6257,-0.625,-0.6194,-0.6169,-0.6149,-0.6096,-0.6077,-0.6046,-0.6011,-0.5981,-0.5935,-0.5891,-0.5882,-0.585,-0.5848,-0.584,-0.5816,-0.5789,-0.5819,-0.5825,-0.5827,-0.5785,-0.5784,-0.5783,-0.5782,0,0,-0.6347,-0.6266,-0.6265,-0.624,-0.618,-0.6158,-0.6137,-0.6095,-0.608,-0.6041,-0.6023,-0.5978,-0.5956,-0.5928,-0.5893,-0.5886,-0.5907,-0.5862,-0.586,-0.5873,-0.5903,-0.5923,-0.5927,-0.5885,-0.5885,-0.5886,-0.5908,0,-0.6367,-0.6326,-0.6282,-0.6257,-0.6232,-0.6182,-0.6164,-0.6126,-0.6093,-0.6067,-0.603,-0.6,-0.5972,-0.5955,-0.5946,-0.5906,-0.5912,-0.5904,-0.5869,-0.5868,-0.5884,-0.5929,-0.5949,-0.5972,-0.591,-0.591,-0.591,0,-0.6384,-0.6349,-0.6322,-0.6267,-0.6255,-0.6239,-0.6199,-0.6175,-0.6131,-0.6108,-0.6079,-0.6043,-0.6019,-0.5996,-0.5964,-0.5959,-0.5943,-0.5921,-0.5921,-0.5916,-0.5891,-0.5927,-0.5978,-0.5983,-0.5913,-0.5913,-0.5913,0,-0.6435,-0.6381,-0.6358,-0.6338,-0.6273,-0.6264,-0.6237,-0.6192,-0.6171,-0.6136,-0.6122,-0.6085,-0.6065,-0.6037,-0.5992,-0.5979,-0.5966,-0.5938,-0.5946,-0.5948,-0.5946,-0.5947,-0.5996,-0.5934,-0.5934,-0.5934,-0.5934,0,-0.6462,-0.6448,-0.6381,-0.6367,-0.6351,-0.63,-0.6285,-0.6253,-0.6215,-0.6195,-0.615,-0.6132,-0.6074,-0.605,-0.6014,-0.5994,-0.5985,-0.5966,-0.5957,-0.5971,-0.5974,-0.5959,-0.5957,-0.5934,-0.5934,-0.5934,-0.5934,0,-0.6516,-0.647,-0.6443,-0.6384,-0.6369,-0.636,-0.631,-0.6296,-0.6261,-0.6237,-0.6228,-0.6173,-0.6143,-0.6096,-0.605,-0.6027,-0.6014,-0.5998,-0.6029,-0.6023,-0.6035,-0.6036,-0.6078,-0.6082,-0.6016,-0.6017,-0.6018,0,-0.6536,-0.6525,-0.6466,-0.645,-0.6424,-0.6398,-0.6377,-0.6328,-0.6308,-0.6259,-0.6251,-0.6218,-0.6188,-0.6142,-0.6098,-0.6064,-0.6048,-0.6066,-0.6043,-0.6058,-0.605,-0.6052,-0.6052,-0.6071,-0.6072,-0.6073,-0.6073,0,-0.6579,-0.6557,-0.6529,-0.6493,-0.647,-0.6439,-0.6406,-0.6395,-0.6339,-0.6319,-0.6288,-0.6265,-0.622,-0.6188,-0.6149,-0.6121,-0.6089,-0.6081,-0.6082,-0.6096,-0.6115,-0.6107,-0.6044,-0.608,-0.608,-0.6079,-0.6079,-0.6078,-0.6617,-0.6606,-0.6564,-0.6534,-0.6504,-0.6475,-0.646,-0.6424,-0.6397,-0.6358,-0.633,-0.6301,-0.6261,-0.6205,-0.6179,-0.6157,-0.6142,-0.6142,-0.6143,-0.6144,-0.615,-0.6118,-0.6149,-0.6149,-0.6148,-0.6148,-0.6148,0,-0.6659,-0.663,-0.6603,-0.656,-0.6537,-0.6509,-0.6472,-0.6455,-0.6431,-0.6396,-0.6368,-0.6334,-0.6303,-0.6259,-0.6225,-0.6216,-0.62,-0.6208,-0.6209,-0.6204,-0.6164,-0.6167,-0.6222,-0.6222,-0.6222,-0.6222,-0.6222,-0.6222,-0.6678,-0.6658,-0.6632,-0.6598,-0.6568,-0.654,-0.6522,-0.6496,-0.6468,-0.6432,-0.6407,-0.6378,-0.634,-0.6303,-0.6275,-0.6262,-0.6253,-0.6266,-0.6249,-0.6213,-0.6206,-0.62,-0.6203,-0.6264,-0.6264,-0.6291,-0.6292,-0.6292]},{"header":{"parameterUnit":"m.s-1","parameterCategory":1,"la1":30.2991,"la2":30.254,"lo1":-89.0895,"lo2":-89.0444,"dy":0.0017,"dx":0.0017,"nx":28,"ny":28,"refTime":"2023-08-02T03:00:00:Z","depth":0,"parameterNumber":3,"parameterNumberName":"V-component_of_WINDS"},"data":[0,0,0,0,0,0,0,0,0,0,0,0,0,0,0,0,0,0,0,0,0,0,0,0,0,0,0,0,0,0,0,0,0,0,0,0,0,0,0,0,0,0,0,0,0,0,0,0,0,0,0,0,0,0,0,0,0,0,3.7259,3.7258,0,3.7222,3.7221,3.7221,3.7226,3.7227,3.7227,3.7228,3.7184,3.7182,3.718,0,0,0,0,0,0,0,0,0,0,0,0,0,3.7328,3.7327,3.7259,3.7258,3.7258,3.7222,3.7221,3.7221,3.7226,3.7227,3.7228,3.7228,3.7184,3.7182,3.718,0,0,0,0,0,0,0,0,0,0,0,0,0,3.7295,3.7327,3.7259,3.7256,3.7256,3.7222,3.7221,3.7221,3.7226,3.7227,3.7228,3.7229,3.7185,3.7183,3.718,3.7145,0,0,3.7172,3.7171,0,0,0,0,0,0,0,0,3.7297,3.7293,3.7257,3.7256,3.7256,3.723,3.723,3.7195,3.7226,3.7237,3.7228,3.7229,3.7198,3.7194,3.7185,3.7143,3.7141,3.7172,3.717,3.7169,3.7168,0,0,0,0,0,0,0,3.7299,3.7294,3.7244,3.7257,3.7256,3.7255,3.7252,3.7223,3.7212,3.7236,3.7236,3.7232,3.7198,3.7188,3.7184,3.714,3.7172,3.7169,3.7168,3.7167,3.7065,3.7064,0,0,0,0,0,0,3.7303,3.7296,3.7245,3.7243,3.7279,3.7253,3.7249,3.7237,3.7213,3.721,3.7232,3.7233,3.7192,3.7187,3.7183,3.7138,3.7169,3.7166,3.7165,3.7066,3.7065,3.7063,0,0,0,0,0,0,3.7305,3.7299,3.7247,3.727,3.7263,3.7251,3.7237,3.7236,3.7226,3.7209,3.7207,3.7224,3.7192,3.7186,3.7154,3.7137,3.7165,3.7163,3.7067,3.7066,3.7064,3.705,0,0,0,0,0,0,3.7307,3.7299,3.7287,3.7269,3.7262,3.7221,3.7236,3.7234,3.7222,3.7223,3.7201,3.7198,3.7193,3.7158,3.7151,3.7134,3.7161,3.7069,3.7067,3.7065,3.7052,3.7048,3.7045,0,0,0,0,0,3.7309,3.7283,3.7286,3.728,3.7247,3.722,3.7215,3.7211,3.7221,3.7207,3.7197,3.7199,3.714,3.7155,3.7147,3.7128,3.707,3.7067,3.7065,3.7054,3.7049,3.7045,0,0,0,0,0,0,3.7297,3.7281,3.7284,3.7252,3.7238,3.7221,3.7204,3.7206,3.7186,3.7188,3.7181,3.7176,3.7143,3.7133,3.7149,3.7092,3.7106,3.7102,3.71,3.7095,3.7092,3.7094,3.7159,0,0,0,0,0,3.7291,3.7272,3.7259,3.7232,3.7225,3.7216,3.7204,3.7202,3.7185,3.7178,3.7165,3.7148,3.7125,3.711,3.7088,3.7051,3.7045,3.7035,3.7031,3.7028,3.7024,3.7002,3.6996,3.7055,3.7055,3.7055,0,0,3.7277,3.7267,3.7255,3.7229,3.7218,3.7196,3.721,3.7187,3.7171,3.7174,3.7143,3.7133,3.7113,3.7078,3.7061,3.7068,3.7007,3.7025,3.7023,3.702,3.6998,3.6993,3.6988,3.7054,3.7054,3.7054,0,0,3.7242,3.7233,3.7209,3.7197,3.718,3.7175,3.7169,3.7152,3.7146,3.7115,3.7117,3.7097,3.7058,3.7043,3.7031,3.699,3.6991,3.6983,3.6963,3.6942,3.6937,3.6933,3.6916,3.6911,3.6979,3.6979,3.6979,0,3.7226,3.7197,3.7196,3.7173,3.716,3.7165,3.714,3.7128,3.7104,3.7094,3.7103,3.7054,3.7041,3.7002,3.6992,3.6982,3.6974,3.6984,3.6938,3.6934,3.693,3.6914,3.6908,3.6978,3.6979,3.6979,3.6979,0,3.7178,3.7157,3.7139,3.7118,3.7104,3.708,3.7073,3.7059,3.7059,3.7051,3.7019,3.7004,3.6978,3.6969,3.6968,3.6929,3.6934,3.694,3.6954,3.6924,3.6908,3.6902,3.6977,3.6977,3.6978,3.6978,0,0,3.7131,3.7111,3.7104,3.7094,3.7076,3.7059,3.7034,3.7012,3.6999,3.6982,3.696,3.6928,3.6934,3.6919,3.6916,3.6898,3.6864,3.6906,3.6906,3.6897,3.6818,3.6812,3.6805,3.6866,3.6865,3.6864,3.6819,0,3.7092,3.7051,3.7049,3.7011,3.699,3.6995,3.6973,3.6958,3.6951,3.6931,3.6923,3.6899,3.691,3.6901,3.6884,3.6872,3.6848,3.6876,3.6842,3.6841,3.6845,3.6797,3.679,3.6748,3.6813,3.6812,3.6812,0,3.7041,3.7024,3.6984,3.6969,3.696,3.6941,3.6919,3.6901,3.6884,3.688,3.6865,3.6864,3.6837,3.6853,3.6814,3.6833,3.682,3.6812,3.681,3.6805,3.6823,3.6788,3.6735,3.6728,3.6803,3.6803,3.6804,0,3.7008,3.6976,3.6948,3.6939,3.6921,3.6907,3.6898,3.6883,3.6869,3.685,3.684,3.6818,3.6805,3.6787,3.6779,3.6792,3.674,3.6756,3.6733,3.6733,3.6719,3.672,3.6661,3.6715,3.6715,3.6715,3.6715,0,3.6963,3.6938,3.6933,3.6915,3.6886,3.6884,3.6855,3.6847,3.6833,3.6812,3.6815,3.6794,3.6788,3.6765,3.676,3.6727,3.6721,3.6715,3.6713,3.6714,3.6714,3.6702,3.6704,3.6713,3.6714,3.6714,3.6714,0,3.6921,3.6917,3.6886,3.6872,3.6868,3.6847,3.6833,3.6815,3.6809,3.6782,3.6776,3.6765,3.674,3.6732,3.67,3.6696,3.6657,3.6659,3.6663,3.6662,3.6639,3.664,3.6569,3.6558,3.6621,3.6621,3.662,0,3.6891,3.6872,3.6856,3.6844,3.6835,3.6814,3.6801,3.6798,3.6783,3.6763,3.6746,3.6722,3.6701,3.666,3.6648,3.6623,3.6623,3.66,3.6619,3.6619,3.662,3.662,3.6617,3.6595,3.6595,3.6594,3.6594,0,3.6838,3.6837,3.6819,3.68,3.6784,3.6768,3.6753,3.6742,3.6737,3.672,3.6695,3.6679,3.6648,3.6622,3.6598,3.6586,3.6588,3.6588,3.6581,3.6579,3.6582,3.6578,3.665,3.6589,3.659,3.659,3.659,3.659,3.6799,3.6782,3.6768,3.6747,3.6736,3.6722,3.6704,3.6696,3.6676,3.6652,3.6651,3.6623,3.6606,3.6573,3.6561,3.6537,3.6544,3.6534,3.6531,3.6528,3.6525,3.6588,3.6533,3.6533,3.6533,3.6533,3.6534,0,3.6744,3.6736,3.6717,3.6696,3.668,3.6686,3.667,3.6654,3.663,3.6615,3.6596,3.6566,3.6541,3.6528,3.6503,3.6486,3.6486,3.648,3.6479,3.6476,3.6522,3.6529,3.648,3.648,3.648,3.648,3.648,3.648,3.6713,3.6684,3.6681,3.6646,3.6637,3.6611,3.6601,3.6587,3.6575,3.6542,3.6523,3.6515,3.65,3.6474,3.6451,3.6447,3.6437,3.6429,3.6425,3.6468,3.6473,3.6478,3.6485,3.6427,3.6427,3.6381,3.6381,3.638]}]]